Flag for U.S.A. Weather past 2 weeks in Frankfort, Kentucky, U.S.A.

Now
71 °F

Clear.


Feels Like: 73 °F
Forecast: 68 / 90 °F
Wind: 3 mph from Southeast

Location: Capital City Airport

Current Time: Sep 5, 2015 at 2:50:47 AM

Latest Report: Sep 5, 2015 at 1:53 AM


Visibility: 10 mi

Pressure: 30.05 "Hg

Humidity: 76%

Dew point: 63 °F

Location of FrankfortLocation

Historic Weather in Frankfort — Graph

°F

Frankfort temperature yesterday

Maximum temperature yesterday: 93 °F (at 3:53 PM)
Minimum temperature yesterday: 66 °F (at 6:53 AM)
Average temperature yesterday: 79 °F

Past Weeks' High & Low Weather Summary

 TemperatureHumidityPressure
High93 °F (Sep 4, 3:53 PM)96% (Aug 21, 8:03 AM)30.18 "Hg (Aug 21, 8:03 AM)
Low52 °F (Aug 26, 5:53 AM)37% (Sep 4, 3:53 PM)29.88 "Hg (Aug 23, 6:53 PM)
Average72 °F69%30.06 "Hg
* Reported Aug 21 1:53 AM — Sep 5 1:53 AM, Frankfort, Weather by CustomWeather, © 2015

Note: Actual official high and low records may vary slightly from our data, if they occured in-between our weather recording intervals... More about our weather records

Advertising

Frankfort weather history for previous 24 hours

 ConditionsComfort  
Time TempWeatherWind HumidityBarometerVisibility
1:53 AM
Sat, Sep 5
71 °FClear.3 mph76%30.05 "Hg10 mi
12:53 AM71 °FClear.7 mph76%30.06 "Hg10 mi
11:53 PM
Fri, Sep 4
73 °FClear.13 mph74%30.09 "Hg10 mi
10:53 PM76 °FPassing clouds.12 mph60%30.09 "Hg10 mi
9:53 PM79 °FPassing clouds.14 mph65%30.08 "Hg10 mi
8:53 PM77 °FSunny.No wind74%30.03 "Hg9 mi
7:53 PM85 °FSunny.No wind57%30.00 "Hg10 mi
6:53 PM89 °FSunny.5 mph45%30.00 "Hg10 mi
5:53 PM91 °FSunny.5 mph41%29.98 "Hg10 mi
4:53 PM92 °FOvercast.3 mph38%29.98 "Hg10 mi
3:53 PM93 °FPartly sunny.5 mph37%29.99 "Hg10 mi
2:53 PM91 °FSunny.No wind39%30.01 "Hg10 mi
1:53 PM89 °FPartly sunny.6 mph42%30.03 "Hg10 mi
12:53 PM90 °FSunny.3 mph42%30.04 "Hg10 mi
11:53 AM88 °FSunny.3 mph48%30.04 "Hg10 mi
10:53 AM85 °FSunny.3 mph53%30.03 "Hg9 mi
9:53 AM79 °FSunny.No wind69%30.03 "Hg7 mi
8:53 AM73 °FSunny.No wind81%30.03 "Hg5 mi
7:53 AM67 °FFog.No wind90%30.02 "Hg3 mi
6:53 AM66 °FFog.No wind93%30.00 "Hg5 mi
5:53 AM67 °FFog.No wind90%29.98 "Hg4 mi
4:53 AM67 °FFog.No wind90%29.98 "Hg5 mi
3:53 AM68 °FFog.No wind90%29.96 "Hg4 mi
2:53 AM68 °FFog.No wind90%29.96 "Hg5 mi
Weather by CustomWeather, © 2015

See weather overviewHow to use our weather pages